Weather History for Okeechobee, FL

Change the Weather History Date:

Monday, May 12, 2014

  Actual Average Record
Temperature  
Mean Temperature 76 °F -  
Max Temperature 87 °F 84 °F 93 °F (2007)
Min Temperature 64 °F 65 °F 55 °F (1989)
Cooling Degree Days 10    
Growing Degree Days 26 (Base 50)    
Moisture  
Dew Point 66 °F    
Average Humidity 75    
Maximum Humidity 100    
Minimum Humidity 48    
Precipitation  
Precipitation 0.00 in - - ()
Sea Level Pressure  
Sea Level Pressure 30.11 in    
Wind  
Wind Speed 5 mph (East)    
Max Wind Speed 14 mph    
Max Gust Speed 22 mph    
Visibility 10 miles    
Events      
Averages and records for this station are not official NWS values.
T = Trace of Precipitation, MM = Missing Value Source: NWS Daily Summary

Daily Weather History Graph

Daily Weather History Graph

Search for Another Location

Airport:

Trip Planner

Search our weather history database for the weather conditions in past years. The results will help you decide how hot, cold, wet, or windy it might be!

Date:

Astronomy

May. 12, 2014 Rise Set
Actual Time 6:36 AM EDT 8:03 PM EDT
Civil Twilight 6:11 AM EDT 8:28 PM EDT
Nautical Twilight 5:41 AM EDT 8:58 PM EDT
Astronomical Twilight 5:10 AM EDT 9:29 PM EDT
Moon 6:10 PM EDT (5/12) 5:01 AM EDT (5/12)
Length of Visible Light 14h 16m
Length of Day
13h 26m
Waxing Gibbous, 95% of the Moon is Illuminated
May 12
Waxing Gibbous
May 14
Full
May 21
Last Quarter
May 28
New
Jun 5
First Quarter

Hourly Weather History & Observations

Time (EDT) Temp. Heat Index Dew Point Humidity Pressure Visibility Wind Dir Wind Speed Gust Speed Precip Events Conditions
12:15 AM 69.8 °F - 64.4 °F 83% 30.14 in 10.0 mi ENE 3.5 mph - N/A   Clear
12:35 AM 69.8 °F - 64.4 °F 83% 30.14 in 10.0 mi ENE 3.5 mph - N/A   Clear
12:55 AM 68.0 °F - 64.4 °F 88% 30.13 in 10.0 mi ENE 3.5 mph - N/A   Clear
1:15 AM 69.8 °F - 64.4 °F 83% 30.12 in 10.0 mi ENE 3.5 mph - N/A   Scattered Clouds
1:35 AM 68.0 °F - 64.4 °F 88% 30.11 in 10.0 mi East 4.6 mph - N/A   Clear
1:55 AM 68.0 °F - 64.4 °F 88% 30.11 in 10.0 mi Calm Calm - N/A   Clear
2:15 AM 68.0 °F - 64.4 °F 88% 30.11 in 10.0 mi Calm Calm - N/A   Clear
2:35 AM 68.0 °F - 64.4 °F 88% 30.10 in 10.0 mi Calm Calm - N/A   Clear
2:55 AM 68.0 °F - 64.4 °F 88% 30.09 in 10.0 mi Calm Calm - N/A   Clear
3:15 AM 68.0 °F - 64.4 °F 88% 30.09 in 10.0 mi Calm Calm - N/A   Clear
3:35 AM 68.0 °F - 64.4 °F 88% 30.09 in 10.0 mi ENE 3.5 mph - N/A   Clear
3:55 AM 68.0 °F - 64.4 °F 88% 30.09 in 10.0 mi NE 3.5 mph - N/A   Clear
4:15 AM 66.2 °F - 64.4 °F 94% 30.09 in 10.0 mi Calm Calm - N/A   Clear
4:35 AM 68.0 °F - 64.4 °F 88% 30.09 in 10.0 mi Calm Calm - N/A   Scattered Clouds
4:55 AM 66.2 °F - 64.4 °F 94% 30.09 in 10.0 mi Calm Calm - N/A   Clear
5:15 AM 66.2 °F - 64.4 °F 94% 30.09 in 7.0 mi Calm Calm - N/A   Clear
5:35 AM 64.4 °F - 64.4 °F 100% 30.09 in 7.0 mi Calm Calm - N/A   Clear
5:55 AM 64.4 °F - 64.4 °F 100% 30.09 in 5.0 mi Calm Calm - N/A   Clear
6:15 AM 64.4 °F - 64.4 °F 100% 30.09 in 5.0 mi Calm Calm - N/A   Clear
6:35 AM 64.4 °F - 64.4 °F 100% 30.09 in 7.0 mi East 3.5 mph - N/A   Clear
6:55 AM 64.4 °F - 64.4 °F 100% 30.10 in 7.0 mi ENE 4.6 mph - N/A   Clear
7:15 AM 66.2 °F - 66.2 °F 100% 30.11 in 7.0 mi East 3.5 mph - N/A   Clear
7:35 AM 68.0 °F - 68.0 °F 100% 30.11 in 7.0 mi ENE 4.6 mph - N/A   Clear
7:55 AM 69.8 °F - 68.0 °F 94% 30.12 in 10.0 mi East 3.5 mph - N/A   Clear
8:15 AM 71.6 °F - 68.0 °F 88% 30.12 in 10.0 mi East 4.6 mph - N/A   Clear
8:35 AM 73.4 °F - 68.0 °F 83% 30.13 in 10.0 mi East 5.8 mph - N/A   Clear
8:55 AM 77.0 °F - 69.8 °F 78% 30.14 in 10.0 mi ENE 5.8 mph - N/A   Clear
9:15 AM 77.0 °F - 68.0 °F 74% 30.14 in 10.0 mi East 5.8 mph - N/A   Scattered Clouds
9:35 AM 77.0 °F - 68.0 °F 74% 30.14 in 10.0 mi East 9.2 mph - N/A   Scattered Clouds
9:55 AM 78.8 °F - 68.0 °F 69% 30.14 in 10.0 mi East 5.8 mph - N/A   Clear
10:15 AM 78.8 °F - 68.0 °F 69% 30.15 in 10.0 mi East 8.1 mph - N/A   Mostly Cloudy
10:35 AM 78.8 °F - 66.2 °F 65% 30.15 in 10.0 mi East 8.1 mph - N/A   Mostly Cloudy
10:55 AM 80.6 °F 82.7 °F 66.2 °F 61% 30.15 in 10.0 mi East 6.9 mph - N/A   Scattered Clouds
11:15 AM 80.6 °F 83.2 °F 68.0 °F 65% 30.15 in 10.0 mi East 8.1 mph - N/A   Clear
11:35 AM 80.6 °F 83.2 °F 68.0 °F 65% 30.15 in 10.0 mi East 6.9 mph - N/A   Mostly Cloudy
11:55 AM 80.6 °F 83.2 °F 68.0 °F 65% 30.15 in 10.0 mi East 8.1 mph - N/A   Mostly Cloudy
12:15 PM 80.6 °F 83.2 °F 68.0 °F 65% 30.15 in 10.0 mi East 6.9 mph - N/A   Mostly Cloudy
12:35 PM 82.4 °F 84.6 °F 66.2 °F 58% 30.15 in 10.0 mi ESE 10.4 mph - N/A   Mostly Cloudy
12:55 PM 84.2 °F 87.3 °F 68.0 °F 58% 30.14 in 10.0 mi ESE 10.4 mph - N/A   Mostly Cloudy
1:15 PM 86.0 °F 88.2 °F 66.2 °F 51% 30.13 in 10.0 mi East 11.5 mph 17.3 mph N/A   Scattered Clouds
1:35 PM 86.0 °F 88.2 °F 66.2 °F 51% 30.13 in 10.0 mi East 9.2 mph 17.3 mph N/A   Scattered Clouds
1:55 PM 84.2 °F 87.3 °F 68.0 °F 58% 30.13 in 10.0 mi East 10.4 mph 18.4 mph N/A   Scattered Clouds
2:15 PM 84.2 °F 87.3 °F 68.0 °F 58% 30.12 in 10.0 mi East 12.7 mph 19.6 mph N/A   Scattered Clouds
2:35 PM 87.8 °F 91.4 °F 68.0 °F 52% 30.12 in 10.0 mi East 10.4 mph 17.3 mph N/A   Mostly Cloudy
2:55 PM 84.2 °F 85.6 °F 64.4 °F 51% 30.11 in 10.0 mi East 10.4 mph 19.6 mph N/A   Scattered Clouds
3:15 PM 86.0 °F 87.3 °F 64.4 °F 48% 30.11 in 10.0 mi ESE 10.4 mph 19.6 mph N/A   Scattered Clouds
3:35 PM 86.0 °F 88.2 °F 66.2 °F 51% 30.10 in 10.0 mi East 8.1 mph - N/A   Scattered Clouds
3:55 PM 86.0 °F 87.3 °F 64.4 °F 48% 30.11 in 10.0 mi East 11.5 mph 17.3 mph N/A   Scattered Clouds
4:15 PM 86.0 °F 87.3 °F 64.4 °F 48% 30.11 in 10.0 mi East 12.7 mph 20.7 mph N/A   Scattered Clouds
4:35 PM 86.0 °F 87.3 °F 64.4 °F 48% 30.10 in 10.0 mi East 12.7 mph 18.4 mph N/A   Scattered Clouds
4:55 PM 86.0 °F 87.3 °F 64.4 °F 48% 30.09 in 10.0 mi East 9.2 mph 17.3 mph N/A   Clear
5:15 PM 86.0 °F 87.3 °F 64.4 °F 48% 30.09 in 10.0 mi ENE 9.2 mph 17.3 mph N/A   Clear
5:35 PM 84.2 °F 85.6 °F 64.4 °F 51% 30.09 in 10.0 mi East 8.1 mph 19.6 mph N/A   Scattered Clouds
5:55 PM 82.4 °F 83.9 °F 64.4 °F 54% 30.09 in 10.0 mi East 13.8 mph 19.6 mph N/A   Clear
6:15 PM 82.4 °F 83.9 °F 64.4 °F 54% 30.09 in 10.0 mi East 8.1 mph 16.1 mph N/A   Clear
6:35 PM 80.6 °F 82.3 °F 64.4 °F 58% 30.09 in 10.0 mi East 10.4 mph 21.9 mph N/A   Clear
6:55 PM 78.8 °F - 64.4 °F 61% 30.09 in 10.0 mi East 6.9 mph - N/A   Scattered Clouds
7:15 PM 78.8 °F - 66.2 °F 65% 30.09 in 10.0 mi East 8.1 mph - N/A   Scattered Clouds
7:35 PM 78.8 °F - 66.2 °F 65% 30.09 in 10.0 mi East 9.2 mph - N/A   Clear
7:55 PM 77.0 °F - 66.2 °F 69% 30.09 in 10.0 mi East 6.9 mph - N/A   Clear
8:15 PM 77.0 °F - 66.2 °F 69% 30.10 in 10.0 mi East 6.9 mph - N/A   Clear
8:35 PM 75.2 °F - 68.0 °F 78% 30.10 in 10.0 mi East 4.6 mph - N/A   Clear
8:55 PM 73.4 °F - 68.0 °F 83% 30.10 in 10.0 mi East 4.6 mph - N/A   Clear
9:15 PM 73.4 °F - 68.0 °F 83% 30.11 in 10.0 mi East 4.6 mph - N/A   Clear
9:35 PM 73.4 °F - 68.0 °F 83% 30.10 in 10.0 mi East 3.5 mph - N/A   Clear
9:55 PM 71.6 °F - 68.0 °F 88% 30.11 in 10.0 mi ENE 3.5 mph - N/A   Clear
10:15 PM 71.6 °F - 68.0 °F 88% 30.11 in 10.0 mi East 4.6 mph - N/A   Clear
10:35 PM 71.6 °F - 68.0 °F 88% 30.11 in 10.0 mi ENE 4.6 mph - N/A   Mostly Cloudy
10:55 PM 71.6 °F - 68.0 °F 88% 30.12 in 10.0 mi ENE 3.5 mph - N/A   Scattered Clouds
11:15 PM 71.6 °F - 68.0 °F 88% 30.11 in 10.0 mi East 3.5 mph - N/A   Scattered Clouds
11:35 PM 71.6 °F - 68.0 °F 88% 30.11 in 10.0 mi East 3.5 mph - N/A   Scattered Clouds
11:55 PM 71.6 °F - 68.0 °F 88% 30.10 in 10.0 mi ENE 3.5 mph - N/A   Clear